User: anonymous   Login
Location: Vancouver
(49.2500°N, 123.1330°W)
Time: 09:05:48
(UTC-07:00)
Language:

AO-27 - Orbit

View from above orbital plane
View from above orbital plane
View from above satellite
View from above satellite

Ground track
Ground track

The orbit data is extracted from the following two-line orbital elements,

1 22825U 93061C   14296.88369881  .00000316  00000-0  14019-3 0  8033
2 22825 098.6772 242.3596 0007299 281.0393 111.2376 14.29765434 99176
Epoch (UTC): 23 October 2014 21:12:31
Eccentricity: 0.0007299
inclination: 98.6772°
perigee height: 787 km
apogee height: 798 km
right ascension of ascending node: 242.3596°
argument of perigee: 281.0393°
revolutions per day: 14.29765434
mean anomaly at epoch: 111.2376°
orbit number at epoch: 9917

The dashed part of the orbit path shows where the satellite is in the earth's shadow,  

DLR